{"data":{"norad_id":65213,"epoch":"2026-09-20T10:42:17.531136Z","epoch_age_seconds":125034,"freshness":"FRESH","line1":"1 65213U 25176R   26263.44603624  .00000677  00000+0  31201-4 0  9996","line2":"2 65213  53.1594 324.1927 0001495  90.6297 269.4877 15.34382154 62991","mean_motion":15.34382154,"eccentricity":0.0001495,"inclination_deg":53.1594,"raan_deg":324.1927,"arg_perigee_deg":90.6297,"mean_anomaly_deg":269.4877,"bstar":3.1201e-5,"rev_number":6299,"period_min":93.848849600215,"perigee_km":461.7335692483,"apogee_km":463.77899633986,"semimajor_km":6840.8932827941,"source":"CELESTRAK","updated_at":"2026-09-21T09:00:35.536301Z"}}